| time (UTC) | temp F | wind direction | speed knots | gust knots | rain 1hr in | rain 24hr in | rain mn in | humidity % | barometer mb |
| 20260508115500 | 44 | 229 | 0.9 | 6.1 | 0.00 | 0.00 | 0.00 | 80 | 1013.3 |
| 20260508115059 | 43 | 229 | 2.6 | 6.1 | 0.00 | 0.00 | 0.00 | 80 | 1013.3 |
| 20260508114558 | 43 | 240 | 2.6 | 6.1 | 0.00 | 0.00 | 0.00 | 80 | 1013.3 |
| 20260508114102 | 43 | 265 | 1.7 | 7.0 | 0.00 | 0.00 | 0.00 | 80 | 1013.3 |
| 20260508113556 | 42 | 248 | 2.6 | 7.0 | 0.00 | 0.00 | 0.00 | 80 | 1013.3 |
| 20260508113103 | 42 | 239 | 0.9 | 3.5 | 0.00 | 0.00 | 0.00 | 81 | 1013.2 |
| 20260508112554 | 42 | 249 | 1.7 | 3.5 | 0.00 | 0.00 | 0.00 | 80 | 1013.1 |
| 20260508112055 | 43 | 325 | 0.9 | 2.6 | 0.00 | 0.00 | 0.00 | 80 | 1013.2 |
| 20260508111556 | 42 | 325 | 0.0 | 4.3 | 0.00 | 0.00 | 0.00 | 80 | 1013.2 |
| 20260508111055 | 43 | 325 | 2.6 | 6.1 | 0.00 | 0.00 | 0.00 | 81 | 1013.2 |
| 20260508110554 | 42 | 278 | 2.6 | 6.1 | 0.00 | 0.00 | 0.00 | 81 | 1013.0 |
| 20260508110050 | 42 | 235 | 2.6 | 6.1 | 0.00 | 0.00 | 0.00 | 81 | 1012.9 |
| 20260508105550 | 42 | 247 | 1.7 | 4.3 | 0.00 | 0.00 | 0.00 | 81 | 1012.9 |
| 20260508105050 | 43 | 247 | 1.7 | 4.3 | 0.00 | 0.00 | 0.00 | 82 | 1012.9 |
| 20260508104549 | 43 | 248 | 0.9 | 6.1 | 0.00 | 0.00 | 0.00 | 81 | 1012.9 |
| 20260508104048 | 43 | 246 | 1.7 | 7.8 | 0.00 | 0.00 | 0.00 | 82 | 1012.7 |
| 20260508103547 | 43 | 257 | 1.7 | 7.0 | 0.00 | 0.00 | 0.00 | 82 | 1012.7 |
| 20260508103049 | 43 | 223 | 1.7 | 4.3 | 0.00 | 0.00 | 0.00 | 82 | 1012.7 |
| 20260508102546 | 43 | 232 | 1.7 | 4.3 | 0.00 | 0.00 | 0.00 | 82 | 1012.7 |
| 20260508102045 | 43 | 232 | 0.0 | 4.3 | 0.00 | 0.00 | 0.00 | 81 | 1012.7 |
| 20260508101544 | 43 | 232 | 0.9 | 2.6 | 0.00 | 0.00 | 0.00 | 80 | 1013.1 |
| 20260508101043 | 43 | 232 | 0.9 | 2.6 | 0.00 | 0.00 | 0.00 | 80 | 1013.0 |
| 20260508100547 | 43 | 232 | 0.0 | 2.6 | 0.00 | 0.00 | 0.00 | 79 | 1012.9 |
| 20260508100043 | 44 | 232 | 0.9 | 4.3 | 0.00 | 0.00 | 0.00 | 79 | 1012.9 |
| 20260508095543 | 44 | 232 | 0.0 | 4.3 | 0.00 | 0.00 | 0.00 | 78 | 1012.7 |
| 20260508095042 | 44 | 233 | 1.7 | 4.3 | 0.00 | 0.00 | 0.00 | 78 | 1012.8 |
| 20260508094604 | 44 | 233 | 1.7 | 4.3 | 0.00 | 0.00 | 0.00 | 77 | 1012.9 |
| 20260508094045 | 45 | 260 | 1.7 | 6.1 | 0.00 | 0.00 | 0.00 | 77 | 1013.0 |
| 20260508093542 | 45 | 265 | 1.7 | 3.5 | 0.00 | 0.00 | 0.00 | 77 | 1013.1 |
| 20260508093041 | 45 | 265 | 0.0 | 3.5 | 0.00 | 0.00 | 0.00 | 77 | 1013.2 |
| 20260508092542 | 45 | 265 | 1.7 | 3.5 | 0.00 | 0.00 | 0.00 | 77 | 1013.0 |
| 20260508092040 | 45 | 265 | 0.9 | 3.5 | 0.00 | 0.00 | 0.00 | 77 | 1013.0 |
| 20260508091543 | 45 | 265 | 0.9 | 3.5 | 0.00 | 0.00 | 0.00 | 77 | 1013.1 |
| 20260508091041 | 45 | 265 | 0.9 | 5.2 | 0.00 | 0.00 | 0.00 | 76 | 1013.0 |
| 20260508090541 | 45 | 265 | 0.9 | 5.2 | 0.00 | 0.00 | 0.00 | 76 | 1012.9 |
| 20260508090048 | 45 | 259 | 1.7 | 4.3 | 0.00 | 0.00 | 0.00 | 76 | 1012.9 |
| 20260508085540 | 45 | 266 | 1.7 | 7.8 | 0.00 | 0.00 | 0.00 | 76 | 1012.9 |
| 20260508085041 | 45 | 260 | 3.5 | 7.8 | 0.00 | 0.00 | 0.00 | 75 | 1012.9 |
| 20260508084539 | 45 | 262 | 2.6 | 6.1 | 0.00 | 0.00 | 0.00 | 76 | 1012.8 |
| 20260508084039 | 45 | 275 | 0.9 | 3.5 | 0.00 | 0.00 | 0.00 | 75 | 1012.8 |
| 20260508083542 | 44 | 274 | 0.0 | 2.6 | 0.00 | 0.00 | 0.00 | 75 | 1013.0 |
| 20260508083038 | 44 | 274 | 0.0 | 6.1 | 0.00 | 0.00 | 0.00 | 75 | 1012.9 |
| 20260508082538 | 44 | 279 | 1.7 | 8.7 | 0.00 | 0.00 | 0.00 | 75 | 1013.0 |
| 20260508082037 | 44 | 264 | 0.9 | 2.6 | 0.00 | 0.00 | 0.00 | 75 | 1012.9 |
| 20260508081557 | 44 | 264 | 1.7 | 3.5 | 0.00 | 0.00 | 0.00 | 75 | 1013.1 |
| 20260508081035 | 44 | 264 | 0.9 | 3.5 | 0.00 | 0.00 | 0.00 | 74 | 1013.2 |
| 20260508080535 | 44 | 264 | 1.7 | 5.2 | 0.00 | 0.00 | 0.00 | 74 | 1013.3 |
| 20260508080041 | 44 | 264 | 1.7 | 5.2 | 0.00 | 0.00 | 0.00 | 73 | 1013.3 |
| 20260508075535 | 44 | 264 | 1.7 | 6.1 | 0.00 | 0.00 | 0.00 | 73 | 1013.3 |
| 20260508075036 | 44 | 264 | 2.6 | 6.1 | 0.00 | 0.00 | 0.00 | 73 | 1013.3 |
| 20260508074534 | 44 | 264 | 2.6 | 6.1 | 0.00 | 0.00 | 0.00 | 73 | 1013.3 |
| 20260508074034 | 44 | 264 | 1.7 | 5.2 | 0.00 | 0.00 | 0.00 | 74 | 1013.3 |
| 20260508073534 | 44 | 264 | 1.7 | 3.5 | 0.00 | 0.00 | 0.00 | 74 | 1013.2 |
| 20260508073041 | 44 | 264 | 1.7 | 5.2 | 0.00 | 0.00 | 0.00 | 73 | 1013.1 |
| 20260508072533 | 44 | 264 | 1.7 | 5.2 | 0.00 | 0.00 | 0.00 | 73 | 1013.2 |
| 20260508072034 | 44 | 264 | 0.9 | 3.5 | 0.00 | 0.00 | 0.00 | 73 | 1013.2 |
| 20260508071541 | 44 | 264 | 2.6 | 3.5 | 0.00 | 0.00 | 0.00 | 73 | 1013.3 |
| 20260508071032 | 44 | 264 | 0.9 | 3.5 | 0.00 | 0.00 | 0.00 | 73 | 1013.3 |
| 20260508070533 | 44 | 264 | 1.7 | 3.5 | 0.00 | 0.00 | 0.00 | 74 | 1013.2 |
| 20260508070032 | 44 | 264 | 1.7 | 3.5 | 0.00 | 0.00 | 0.00 | 74 | 1013.2 |
| 20260508065533 | 44 | 264 | 0.9 | 4.3 | 0.00 | 0.00 | 0.00 | 74 | 1013.3 |
| 20260508065031 | 44 | 282 | 1.7 | 6.1 | 0.00 | 0.00 | 0.00 | 74 | 1013.4 |
| 20260508064532 | 44 | 278 | 2.6 | 6.1 | 0.00 | 0.00 | 0.00 | 74 | 1013.5 |
| 20260508064031 | 44 | 263 | 2.6 | 5.2 | 0.00 | 0.00 | 0.00 | 74 | 1013.5 |
| 20260508063531 | 43 | 265 | 1.7 | 5.2 | 0.00 | 0.00 | 0.00 | 73 | 1013.3 |
| 20260508063044 | 43 | 263 | 1.7 | 5.2 | 0.00 | 0.00 | 0.00 | 74 | 1013.2 |
| 20260508062532 | 43 | 265 | 0.9 | 2.6 | 0.00 | 0.00 | 0.00 | 74 | 1013.2 |
| 20260508062029 | 43 | 265 | 0.0 | 1.7 | 0.00 | 0.00 | 0.00 | 75 | 1013.2 |
| 20260508061529 | 43 | 265 | 0.0 | 1.7 | 0.00 | 0.00 | 0.00 | 75 | 1013.1 |
| 20260508061028 | 43 | 265 | 0.0 | 2.6 | 0.00 | 0.00 | 0.00 | 75 | 1013.1 |
| 20260508060528 | 43 | 265 | 1.7 | 3.5 | 0.00 | 0.00 | 0.00 | 75 | 1013.2 |
| 20260508060034 | 43 | 265 | 1.7 | 3.5 | 0.00 | 0.00 | 0.00 | 75 | 1013.3 |
| 20260508055529 | 43 | 265 | 0.9 | 3.5 | 0.00 | 0.00 | 0.00 | 73 | 1013.2 |
| 20260508055027 | 43 | 265 | 0.9 | 3.5 | 0.00 | 0.00 | 0.00 | 73 | 1013.1 |
| 20260508054529 | 43 | 265 | 0.0 | 0.0 | 0.00 | 0.00 | 0.00 | 73 | 1013.4 |
| 20260508054025 | 43 | 265 | 0.0 | 0.0 | 0.00 | 0.00 | 0.00 | 73 | 1013.4 |
| 20260508053525 | 43 | 265 | 0.0 | 0.0 | 0.00 | 0.00 | 0.00 | 74 | 1013.5 |
| 20260508053025 | 43 | 265 | 0.0 | 0.0 | 0.00 | 0.00 | 0.00 | 76 | 1013.6 |
| 20260508052529 | 43 | 265 | 0.0 | 0.0 | 0.00 | 0.00 | 0.00 | 77 | 1013.6 |
| 20260508052022 | 43 | 265 | 0.0 | 0.0 | 0.00 | 0.00 | 0.00 | 75 | 1013.5 |
| 20260508051522 | 44 | 265 | 0.0 | 0.0 | 0.00 | 0.00 | 0.00 | 72 | 1013.5 |
| 20260508051020 | 44 | 265 | 0.0 | 0.0 | 0.00 | 0.00 | 0.00 | 70 | 1013.5 |
| 20260508050518 | 45 | 265 | 0.0 | 0.0 | 0.00 | 0.00 | 0.00 | 69 | 1013.5 |
| 20260508050018 | 45 | 265 | 0.0 | 0.0 | 0.00 | 0.00 | 0.00 | 67 | 1013.5 |
| 20260508045517 | 45 | 265 | 0.0 | 0.0 | 0.00 | 0.00 | 0.00 | 67 | 1013.6 |
| 20260508045017 | 45 | 265 | 0.0 | 1.7 | 0.00 | 0.00 | 0.00 | 67 | 1013.7 |
| 20260508044521 | 45 | 265 | 0.0 | 2.6 | 0.00 | 0.00 | 0.00 | 68 | 1013.8 |
| 20260508044016 | 46 | 265 | 0.9 | 2.6 | 0.00 | 0.00 | 0.00 | 68 | 1013.8 |
| 20260508043514 | 46 | 265 | 1.7 | 2.6 | 0.00 | 0.00 | 0.00 | 66 | 1013.8 |
| 20260508043014 | 47 | 265 | 1.7 | 2.6 | 0.00 | 0.00 | 0.00 | 63 | 1013.8 |
| 20260508042518 | 47 | 265 | 0.9 | 3.5 | 0.00 | 0.00 | 0.00 | 63 | 1013.8 |
| 20260508042012 | 47 | 265 | 1.7 | 3.5 | 0.00 | 0.00 | 0.00 | 63 | 1013.7 |
| 20260508041511 | 47 | 265 | 1.7 | 4.3 | 0.00 | 0.00 | 0.00 | 63 | 1013.7 |
| 20260508041011 | 46 | 265 | 1.7 | 4.3 | 0.00 | 0.00 | 0.00 | 63 | 1013.7 |
| 20260508040510 | 46 | 277 | 2.6 | 3.5 | 0.00 | 0.00 | 0.00 | 63 | 1013.6 |
| 20260508040008 | 46 | 277 | 0.9 | 2.6 | 0.00 | 0.00 | 0.00 | 63 | 1013.6 |
| 20260508035510 | 46 | 277 | 0.9 | 3.5 | 0.00 | 0.00 | 0.00 | 63 | 1013.5 |
| 20260508035008 | 46 | 277 | 1.7 | 3.5 | 0.00 | 0.00 | 0.00 | 62 | 1013.5 |
| 20260508034508 | 46 | 277 | 1.7 | 3.5 | 0.00 | 0.00 | 0.00 | 62 | 1013.5 |
| 20260508034009 | 46 | 277 | 1.7 | 3.5 | 0.00 | 0.00 | 0.00 | 62 | 1013.4 |
| 20260508033508 | 46 | 277 | 1.7 | 3.5 | 0.00 | 0.00 | 0.00 | 61 | 1013.5 |
| 20260508033008 | 46 | 277 | 0.9 | 2.6 | 0.00 | 0.00 | 0.00 | 62 | 1013.5 |
| 20260508032510 | 45 | 277 | 0.9 | 2.6 | 0.00 | 0.00 | 0.00 | 62 | 1013.5 |
| 20260508032007 | 45 | 277 | 0.0 | 2.6 | 0.00 | 0.00 | 0.00 | 62 | 1013.6 |
| 20260508031508 | 46 | 277 | 0.9 | 2.6 | 0.00 | 0.00 | 0.00 | 62 | 1013.6 |
| 20260508031008 | 46 | 277 | 0.0 | 0.0 | 0.00 | 0.00 | 0.00 | 62 | 1013.5 |
| 20260508030510 | 46 | 277 | 0.0 | 0.0 | 0.00 | 0.00 | 0.00 | 62 | 1013.5 |
| 20260508030007 | 46 | 277 | 0.0 | 0.0 | 0.00 | 0.00 | 0.00 | 62 | 1013.5 |
| 20260508025507 | 46 | 277 | 0.0 | 0.9 | 0.00 | 0.00 | 0.00 | 61 | 1013.4 |
| 20260508025006 | 46 | 277 | 0.0 | 1.7 | 0.00 | 0.00 | 0.00 | 61 | 1013.5 |
| 20260508024506 | 46 | 277 | 0.0 | 1.7 | 0.00 | 0.00 | 0.00 | 60 | 1013.5 |
| 20260508024006 | 46 | 277 | 0.0 | 1.7 | 0.00 | 0.00 | 0.00 | 60 | 1013.6 |
| 20260508023506 | 46 | 277 | 0.9 | 1.7 | 0.00 | 0.00 | 0.00 | 59 | 1013.6 |
| 20260508023008 | 46 | 277 | 0.0 | 1.7 | 0.00 | 0.00 | 0.00 | 59 | 1013.5 |
| 20260508022506 | 46 | 277 | 0.0 | 1.7 | 0.00 | 0.00 | 0.00 | 59 | 1013.5 |
| 20260508022006 | 47 | 277 | 0.0 | 1.7 | 0.00 | 0.00 | 0.00 | 59 | 1013.4 |
| 20260508021505 | 47 | 277 | 0.0 | 0.9 | 0.00 | 0.00 | 0.00 | 58 | 1013.4 |
| 20260508021005 | 47 | 277 | 0.0 | 2.6 | 0.00 | 0.00 | 0.00 | 57 | 1013.4 |
| 20260508020504 | 48 | 277 | 0.0 | 3.5 | 0.00 | 0.00 | 0.00 | 56 | 1013.4 |
| 20260508020006 | 48 | 277 | 1.7 | 2.6 | 0.00 | 0.00 | 0.00 | 54 | 1013.5 |
| 20260508015504 | 48 | 277 | 0.9 | 2.6 | 0.00 | 0.00 | 0.00 | 54 | 1013.4 |
| 20260508015004 | 48 | 277 | 0.9 | 2.6 | 0.00 | 0.00 | 0.00 | 54 | 1013.5 |
| 20260508014508 | 48 | 277 | 0.9 | 2.6 | 0.00 | 0.00 | 0.00 | 55 | 1013.4 |
| 20260508014004 | 49 | 277 | 1.7 | 3.5 | 0.00 | 0.00 | 0.00 | 54 | 1013.4 |
| 20260508013503 | 49 | 277 | 1.7 | 3.5 | 0.00 | 0.00 | 0.00 | 54 | 1013.3 |
| 20260508013003 | 49 | 284 | 1.7 | 3.5 | 0.00 | 0.00 | 0.00 | 53 | 1013.2 |
| 20260508012506 | 49 | 288 | 0.9 | 3.5 | 0.00 | 0.00 | 0.00 | 53 | 1013.1 |
| 20260508012003 | 50 | 288 | 0.9 | 3.5 | 0.00 | 0.00 | 0.00 | 52 | 1013.0 |
| 20260508011502 | 50 | 288 | 0.9 | 2.6 | 0.00 | 0.00 | 0.00 | 52 | 1013.0 |
| 20260508011002 | 50 | 288 | 0.9 | 3.5 | 0.00 | 0.00 | 0.00 | 52 | 1013.0 |
| 20260508010502 | 50 | 288 | 0.9 | 4.3 | 0.00 | 0.00 | 0.00 | 51 | 1012.9 |
| 20260508010002 | 50 | 289 | 0.9 | 4.3 | 0.00 | 0.00 | 0.00 | 50 | 1013.0 |
| 20260508005502 | 50 | 286 | 1.7 | 3.5 | 0.00 | 0.00 | 0.00 | 50 | 1012.9 |
| 20260508005005 | 50 | 286 | 0.9 | 3.5 | 0.00 | 0.00 | 0.00 | 50 | 1012.9 |
| 20260508004502 | 50 | 285 | 1.7 | 4.3 | 0.00 | 0.00 | 0.00 | 50 | 1012.8 |
| 20260508004005 | 51 | 286 | 1.7 | 3.5 | 0.00 | 0.00 | 0.00 | 49 | 1012.8 |
| 20260508003503 | 51 | 286 | 0.9 | 3.5 | 0.00 | 0.00 | 0.00 | 49 | 1012.8 |
| 20260508003002 | 51 | 286 | 0.9 | 3.5 | 0.00 | 0.00 | 0.00 | 49 | 1012.7 |
| 20260508002504 | 51 | 288 | 0.9 | 3.5 | 0.00 | 0.00 | 0.00 | 49 | 1012.7 |
| 20260508002001 | 51 | 288 | 0.0 | 6.1 | 0.00 | 0.00 | 0.00 | 48 | 1012.7 |
| 20260508001600 | 51 | 293 | 1.7 | 7.0 | 0.00 | 0.00 | 0.00 | 48 | 1012.7 |
| 20260508001100 | 52 | 292 | 3.5 | 7.0 | 0.00 | 0.00 | 0.00 | 48 | 1012.7 |
| 20260508000601 | 52 | 277 | 1.7 | 8.7 | 0.00 | 0.00 | 0.00 | 48 | 1012.6 |
| 20260508000100 | 52 | 319 | 2.6 | 8.7 | 0.00 | 0.00 | 0.00 | 48 | 1012.5 |
| 20260507235600 | 52 | 295 | 1.7 | 9.6 | 0.00 | 0.00 | 0.00 | 48 | 1012.5 |
| 20260507235059 | 52 | 265 | 5.2 | 9.6 | 0.00 | 0.00 | 0.00 | 47 | 1012.4 |
| 20260507234600 | 52 | 263 | 3.5 | 8.7 | 0.00 | 0.00 | 0.00 | 48 | 1012.4 |
| 20260507234502 | 53 | 238 | 3.5 | 8.7 | 0.00 | 0.00 | 0.00 | 47 | 1012.3 |
| 20260507234059 | 53 | 263 | 4.3 | 9.6 | 0.00 | 0.00 | 0.00 | 47 | 1012.3 |
| 20260507233559 | 53 | 252 | 3.5 | 9.6 | 0.00 | 0.00 | 0.00 | 45 | 1012.2 |
| 20260507233059 | 53 | 269 | 4.3 | 9.6 | 0.00 | 0.00 | 0.00 | 45 | 1012.2 |
| 20260507232600 | 54 | 264 | 1.7 | 7.8 | 0.00 | 0.00 | 0.00 | 46 | 1012.3 |
| 20260507232058 | 54 | 5 | 2.6 | 7.8 | 0.00 | 0.00 | 0.00 | 46 | 1012.3 |
| 20260507231600 | 54 | 298 | 1.7 | 7.0 | 0.00 | 0.00 | 0.00 | 46 | 1012.3 |
| 20260507231058 | 54 | 254 | 1.7 | 7.0 | 0.00 | 0.00 | 0.00 | 46 | 1012.3 |
| 20260507230602 | 53 | 284 | 0.9 | 6.1 | 0.00 | 0.00 | 0.00 | 47 | 1012.4 |
| 20260507230105 | 53 | 212 | 0.9 | 5.2 | 0.00 | 0.00 | 0.00 | 47 | 1012.4 |
| 20260507225557 | 53 | 9 | 0.9 | 8.7 | 0.00 | 0.00 | 0.00 | 48 | 1012.4 |
| 20260507225057 | 54 | 355 | 2.6 | 9.6 | 0.00 | 0.00 | 0.00 | 46 | 1012.4 |
| 20260507224600 | 54 | 142 | 4.3 | 9.6 | 0.00 | 0.00 | 0.00 | 45 | 1012.4 |
| 20260507224056 | 54 | 286 | 3.5 | 8.7 | 0.00 | 0.00 | 0.00 | 46 | 1012.4 |
| 20260507223558 | 54 | 11 | 2.6 | 7.8 | 0.00 | 0.00 | 0.00 | 47 | 1012.4 |
| 20260507223056 | 54 | 285 | 2.6 | 11.3 | 0.00 | 0.00 | 0.00 | 47 | 1012.4 |
| 20260507222658 | 54 | 334 | 2.6 | 11.3 | 0.00 | 0.00 | 0.00 | 45 | 1012.4 |
| 20260507222057 | 54 | 284 | 1.7 | 8.7 | 0.00 | 0.00 | 0.00 | 48 | 1012.4 |
| 20260507221555 | 54 | 317 | 3.5 | 11.3 | 0.00 | 0.00 | 0.00 | 47 | 1012.4 |
| 20260507221054 | 55 | 263 | 5.2 | 14.8 | 0.00 | 0.00 | 0.00 | 45 | 1012.4 |
| 20260507220555 | 55 | 281 | 5.2 | 13.0 | 0.00 | 0.00 | 0.00 | 46 | 1012.4 |
| 20260507220054 | 55 | 360 | 4.3 | 15.6 | 0.00 | 0.00 | 0.00 | 46 | 1012.3 |
| 20260507215554 | 55 | 293 | 6.1 | 15.6 | 0.00 | 0.00 | 0.00 | 46 | 1012.3 |
| 20260507215053 | 55 | 268 | 5.2 | 12.2 | 0.00 | 0.00 | 0.00 | 48 | 1012.1 |
| 20260507214603 | 55 | 195 | 5.2 | 12.2 | 0.00 | 0.00 | 0.00 | 47 | 1012.0 |
| 20260507214054 | 55 | 338 | 4.3 | 12.2 | 0.00 | 0.00 | 0.00 | 49 | 1012.0 |
| 20260507213554 | 55 | 17 | 3.5 | 9.6 | 0.00 | 0.00 | 0.00 | 49 | 1011.9 |
| 20260507213056 | 54 | 250 | 2.6 | 10.4 | 0.00 | 0.00 | 0.00 | 51 | 1012.0 |
| 20260507212554 | 54 | 277 | 4.3 | 14.8 | 0.00 | 0.00 | 0.00 | 49 | 1011.8 |
| 20260507212055 | 55 | 281 | 7.0 | 14.8 | 0.00 | 0.00 | 0.00 | 48 | 1011.7 |
| 20260507211556 | 55 | 277 | 9.6 | 13.9 | 0.00 | 0.00 | 0.00 | 47 | 1011.6 |
| 20260507211051 | 55 | 279 | 1.7 | 13.0 | 0.00 | 0.00 | 0.00 | 51 | 1011.5 |
| 20260507210552 | 54 | 333 | 5.2 | 13.0 | 0.00 | 0.00 | 0.00 | 47 | 1011.4 |
| 20260507210059 | 55 | 305 | 5.2 | 11.3 | 0.00 | 0.00 | 0.00 | 47 | 1011.4 |
| 20260507205551 | 55 | 22 | 1.7 | 13.0 | 0.00 | 0.00 | 0.00 | 50 | 1011.3 |
| 20260507205052 | 55 | 246 | 7.8 | 15.6 | 0.00 | 0.00 | 0.00 | 46 | 1011.3 |
| 20260507204551 | 55 | 260 | 6.1 | 14.8 | 0.00 | 0.00 | 0.00 | 46 | 1011.3 |
| 20260507204055 | 56 | 271 | 6.1 | 13.9 | 0.00 | 0.00 | 0.00 | 45 | 1011.4 |
| 20260507203551 | 57 | 23 | 3.5 | 9.6 | 0.00 | 0.00 | 0.00 | 47 | 1011.3 |
| 20260507203104 | 56 | 257 | 1.7 | 13.0 | 0.00 | 0.00 | 0.00 | 48 | 1011.3 |
| 20260507202549 | 56 | 284 | 7.0 | 13.0 | 0.00 | 0.00 | 0.00 | 47 | 1011.1 |
| 20260507202049 | 55 | 307 | 4.3 | 12.2 | 0.00 | 0.00 | 0.00 | 45 | 1011.1 |
| 20260507201557 | 56 | 277 | 5.2 | 12.2 | 0.00 | 0.00 | 0.00 | 46 | 1011.2 |
| 20260507201050 | 56 | 286 | 2.6 | 11.3 | 0.00 | 0.00 | 0.00 | 48 | 1011.2 |
| 20260507200550 | 55 | 340 | 1.7 | 11.3 | 0.00 | 0.00 | 0.00 | 45 | 1011.3 |
| 20260507200103 | 56 | 320 | 3.5 | 11.3 | 0.00 | 0.00 | 0.00 | 46 | 1011.3 |
| 20260507195547 | 56 | 326 | 5.2 | 13.0 | 0.00 | 0.00 | 0.00 | 48 | 1011.2 |
| 20260507195048 | 56 | 279 | 7.0 | 13.0 | 0.00 | 0.00 | 0.00 | 47 | 1011.3 |
| 20260507194546 | 56 | 280 | 2.6 | 12.2 | 0.00 | 0.00 | 0.00 | 47 | 1011.4 |
| 20260507194045 | 56 | 340 | 7.0 | 12.2 | 0.00 | 0.00 | 0.00 | 46 | 1011.4 |
| 20260507193544 | 56 | 304 | 5.2 | 12.2 | 0.00 | 0.00 | 0.00 | 48 | 1011.5 |
| 20260507193048 | 56 | 274 | 6.1 | 13.9 | 0.00 | 0.00 | 0.00 | 50 | 1011.5 |
| 20260507192543 | 55 | 285 | 5.2 | 13.9 | 0.00 | 0.00 | 0.00 | 51 | 1011.6 |
| 20260507192043 | 55 | 258 | 2.6 | 10.4 | 0.00 | 0.00 | 0.00 | 48 | 1011.6 |
| 20260507191543 | 55 | 269 | 5.2 | 10.4 | 0.00 | 0.00 | 0.00 | 49 | 1011.7 |
| 20260507191143 | 55 | 5 | 4.3 | 10.4 | 0.00 | 0.00 | 0.00 | 49 | 1011.7 |
| 20260507190546 | 55 | 341 | 2.6 | 8.7 | 0.00 | 0.00 | 0.00 | 49 | 1011.7 |
| 20260507190042 | 55 | 13 | 2.6 | 8.7 | 0.00 | 0.00 | 0.00 | 49 | 1011.7 |
| 20260507185546 | 55 | 284 | 4.3 | 13.0 | 0.00 | 0.00 | 0.00 | 47 | 1011.7 |
| 20260507185042 | 56 | 277 | 5.2 | 13.0 | 0.00 | 0.00 | 0.00 | 46 | 1011.7 |
| 20260507184547 | 56 | 264 | 4.3 | 14.8 | 0.00 | 0.00 | 0.00 | 49 | 1011.7 |
| 20260507184041 | 56 | 262 | 7.8 | 14.8 | 0.00 | 0.00 | 0.00 | 50 | 1011.6 |
| 20260507183540 | 56 | 245 | 4.3 | 11.3 | 0.00 | 0.00 | 0.00 | 50 | 1011.6 |
| 20260507183046 | 56 | 294 | 7.0 | 13.0 | 0.00 | 0.00 | 0.00 | 50 | 1011.6 |
| 20260507182539 | 55 | 270 | 6.1 | 13.0 | 0.00 | 0.00 | 0.00 | 48 | 1011.6 |
| 20260507182037 | 55 | 59 | 1.7 | 10.4 | 0.00 | 0.00 | 0.00 | 49 | 1011.7 |
| 20260507181537 | 55 | 294 | 3.5 | 12.2 | 0.00 | 0.00 | 0.00 | 51 | 1011.7 |
| 20260507181035 | 55 | 273 | 4.3 | 11.3 | 0.00 | 0.00 | 0.00 | 49 | 1011.8 |
| 20260507180537 | 55 | 281 | 7.0 | 13.9 | 0.00 | 0.00 | 0.00 | 49 | 1011.8 |
| 20260507180038 | 54 | 294 | 5.2 | 13.9 | 0.00 | 0.00 | 0.00 | 50 | 1011.9 |
| 20260507175533 | 54 | 293 | 2.6 | 13.0 | 0.00 | 0.00 | 0.00 | 49 | 1012.0 |
| 20260507175033 | 54 | 298 | 7.0 | 13.0 | 0.00 | 0.00 | 0.00 | 46 | 1012.0 |
| 20260507174530 | 55 | 277 | 6.1 | 10.4 | 0.00 | 0.00 | 0.00 | 50 | 1012.1 |
| 20260507174032 | 54 | 281 | 3.5 | 10.4 | 0.00 | 0.00 | 0.00 | 49 | 1012.1 |
| 20260507173531 | 54 | 290 | 3.5 | 9.6 | 0.00 | 0.00 | 0.00 | 48 | 1012.1 |
| 20260507173032 | 54 | 313 | 3.5 | 9.6 | 0.00 | 0.00 | 0.00 | 48 | 1012.1 |
| 20260507172529 | 55 | 281 | 5.2 | 12.2 | 0.00 | 0.00 | 0.00 | 47 | 1012.2 |
| 20260507172027 | 55 | 288 | 4.3 | 13.0 | 0.00 | 0.00 | 0.00 | 49 | 1012.2 |
| 20260507171527 | 55 | 269 | 7.8 | 13.0 | 0.00 | 0.00 | 0.00 | 49 | 1012.2 |
| 20260507171026 | 54 | 272 | 4.3 | 13.0 | 0.00 | 0.00 | 0.00 | 51 | 1012.3 |
| 20260507170526 | 54 | 253 | 6.1 | 13.0 | 0.00 | 0.00 | 0.00 | 49 | 1012.4 |
| 20260507170025 | 54 | 276 | 2.6 | 10.4 | 0.00 | 0.00 | 0.00 | 53 | 1012.4 |
| 20260507165525 | 54 | 244 | 5.2 | 12.2 | 0.00 | 0.00 | 0.00 | 48 | 1012.4 |
| 20260507165024 | 54 | 292 | 4.3 | 13.0 | 0.00 | 0.00 | 0.00 | 51 | 1012.5 |
| 20260507164526 | 54 | 290 | 6.1 | 13.0 | 0.00 | 0.00 | 0.00 | 50 | 1012.4 |
| 20260507164023 | 54 | 215 | 4.3 | 13.0 | 0.00 | 0.00 | 0.00 | 52 | 1012.5 |
| 20260507163522 | 53 | 261 | 5.2 | 15.6 | 0.00 | 0.00 | 0.00 | 48 | 1012.4 |
| 20260507163022 | 54 | 211 | 6.1 | 15.6 | 0.00 | 0.00 | 0.00 | 48 | 1012.5 |
| 20260507162519 | 54 | 274 | 4.3 | 10.4 | 0.00 | 0.00 | 0.00 | 51 | 1012.4 |
| 20260507162017 | 53 | 350 | 2.6 | 11.3 | 0.00 | 0.00 | 0.00 | 52 | 1012.5 |
| 20260507161520 | 53 | 257 | 4.3 | 9.6 | 0.00 | 0.00 | 0.00 | 49 | 1012.5 |
| 20260507161016 | 53 | 269 | 6.1 | 10.4 | 0.00 | 0.00 | 0.00 | 48 | 1012.5 |
| 20260507160515 | 53 | 313 | 5.2 | 13.0 | 0.00 | 0.00 | 0.00 | 47 | 1012.5 |
| 20260507160013 | 53 | 276 | 5.2 | 13.0 | 0.00 | 0.00 | 0.00 | 47 | 1012.4 |
| 20260507155512 | 52 | 273 | 6.1 | 13.0 | 0.00 | 0.00 | 0.00 | 51 | 1012.4 |
| 20260507155012 | 53 | 242 | 5.2 | 13.0 | 0.00 | 0.00 | 0.00 | 49 | 1012.5 |
| 20260507154512 | 52 | 311 | 6.1 | 11.3 | 0.00 | 0.00 | 0.00 | 49 | 1012.5 |
| 20260507154017 | 52 | 248 | 4.3 | 13.0 | 0.00 | 0.00 | 0.00 | 50 | 1012.5 |
| 20260507153510 | 52 | 252 | 8.7 | 13.0 | 0.00 | 0.00 | 0.00 | 49 | 1012.6 |
| 20260507153010 | 52 | 279 | 7.0 | 13.9 | 0.00 | 0.00 | 0.00 | 51 | 1012.6 |
| 20260507152513 | 52 | 288 | 6.1 | 13.9 | 0.00 | 0.00 | 0.00 | 52 | 1012.6 |
| 20260507152008 | 52 | 248 | 3.5 | 11.3 | 0.00 | 0.00 | 0.00 | 51 | 1012.6 |
| 20260507151508 | 53 | 265 | 4.3 | 13.0 | 0.00 | 0.00 | 0.00 | 54 | 1012.6 |
| 20260507151007 | 52 | 272 | 7.0 | 13.0 | 0.00 | 0.00 | 0.00 | 52 | 1012.7 |
| 20260507150508 | 52 | 262 | 5.2 | 10.4 | 0.00 | 0.00 | 0.00 | 52 | 1012.7 |
| 20260507150010 | 52 | 281 | 5.2 | 11.3 | 0.00 | 0.00 | 0.00 | 54 | 1012.7 |
| 20260507145504 | 52 | 257 | 4.3 | 11.3 | 0.00 | 0.00 | 0.00 | 54 | 1012.8 |
| 20260507145003 | 52 | 275 | 4.3 | 9.6 | 0.00 | 0.00 | 0.00 | 57 | 1012.8 |
| 20260507144508 | 51 | 283 | 3.5 | 11.3 | 0.00 | 0.00 | 0.00 | 57 | 1012.9 |
| 20260507144001 | 51 | 227 | 6.1 | 11.3 | 0.00 | 0.00 | 0.00 | 55 | 1013.0 |
| 20260507143600 | 51 | 219 | 4.3 | 9.6 | 0.00 | 0.00 | 0.00 | 57 | 1012.9 |
| 20260507143112 | 51 | 284 | 6.1 | 9.6 | 0.00 | 0.00 | 0.00 | 58 | 1012.8 |
| 20260507142600 | 51 | 295 | 2.6 | 8.7 | 0.00 | 0.00 | 0.00 | 61 | 1013.0 |
| 20260507142059 | 51 | 238 | 4.3 | 8.7 | 0.00 | 0.00 | 0.00 | 60 | 1012.9 |
| 20260507141603 | 50 | 293 | 3.5 | 10.4 | 0.00 | 0.00 | 0.00 | 60 | 1013.0 |
| 20260507141101 | 51 | 306 | 5.2 | 10.4 | 0.00 | 0.00 | 0.00 | 60 | 1013.1 |
| 20260507140601 | 51 | 280 | 3.5 | 9.6 | 0.00 | 0.00 | 0.00 | 64 | 1013.2 |
| 20260507140057 | 50 | 269 | 4.3 | 8.7 | 0.00 | 0.00 | 0.00 | 65 | 1013.2 |
| 20260507135554 | 50 | 273 | 2.6 | 8.7 | 0.00 | 0.00 | 0.00 | 68 | 1013.3 |
| 20260507135054 | 49 | 269 | 4.3 | 9.6 | 0.00 | 0.00 | 0.00 | 68 | 1013.4 |
| 20260507134552 | 49 | 284 | 3.5 | 7.8 | 0.00 | 0.00 | 0.00 | 70 | 1013.4 |
| 20260507134050 | 48 | 269 | 2.6 | 8.7 | 0.00 | 0.00 | 0.00 | 72 | 1013.4 |
| 20260507133550 | 48 | 270 | 4.3 | 8.7 | 0.00 | 0.00 | 0.00 | 72 | 1013.5 |
| 20260507133101 | 48 | 273 | 4.3 | 8.7 | 0.00 | 0.00 | 0.00 | 73 | 1013.4 |
| 20260507132546 | 47 | 260 | 4.3 | 9.6 | 0.00 | 0.00 | 0.00 | 73 | 1013.5 |
| 20260507132045 | 47 | 282 | 5.2 | 9.6 | 0.00 | 0.00 | 0.00 | 74 | 1013.4 |
| 20260507131550 | 47 | 260 | 5.2 | 9.6 | 0.00 | 0.00 | 0.00 | 75 | 1013.4 |
| 20260507131042 | 46 | 279 | 3.5 | 7.8 | 0.00 | 0.00 | 0.00 | 78 | 1013.4 |
| 20260507130540 | 46 | 284 | 4.3 | 7.8 | 0.00 | 0.00 | 0.00 | 77 | 1013.4 |
| 20260507130054 | 46 | 236 | 4.3 | 7.8 | 0.00 | 0.00 | 0.00 | 78 | 1013.4 |
| 20260507125538 | 46 | 259 | 3.5 | 9.6 | 0.00 | 0.00 | 0.00 | 78 | 1013.3 |
| 20260507125036 | 45 | 261 | 4.3 | 8.7 | 0.00 | 0.00 | 0.00 | 79 | 1013.5 |
| 20260507124535 | 45 | 292 | 2.6 | 7.8 | 0.00 | 0.00 | 0.00 | 81 | 1013.4 |
| 20260507124034 | 45 | 265 | 3.5 | 7.8 | 0.00 | 0.00 | 0.00 | 82 | 1013.3 |
| 20260507123534 | 45 | 278 | 4.3 | 7.8 | 0.00 | 0.00 | 0.00 | 83 | 1013.4 |
| 20260507123032 | 44 | 246 | 2.6 | 7.0 | 0.00 | 0.00 | 0.00 | 83 | 1013.3 |
| 20260507122529 | 44 | 250 | 1.7 | 7.0 | 0.00 | 0.00 | 0.00 | 84 | 1013.4 |
| 20260507122030 | 44 | 260 | 2.6 | 7.0 | 0.00 | 0.00 | 0.00 | 84 | 1013.4 |
| 20260507121526 | 43 | 246 | 3.5 | 7.8 | 0.00 | 0.00 | 0.00 | 84 | 1013.3 |
| 20260507121025 | 43 | 249 | 3.5 | 8.7 | 0.00 | 0.00 | 0.00 | 84 | 1013.4 |
| 20260507120523 | 43 | 258 | 4.3 | 8.7 | 0.00 | 0.00 | 0.00 | 85 | 1013.3 |
| 20260507120026 | 42 | 265 | 4.3 | 8.7 | 0.00 | 0.00 | 0.00 | 86 | 1013.4 |